{"data":{"norad_id":53478,"epoch":"2026-09-20T22:00:03.000096Z","epoch_age_seconds":43055,"freshness":"FRESH","line1":"1 53478U 22099P   26263.91670139  .00737785  00000+0  31853-1 0  9991","line2":"2 53478  97.2852  17.7135 0001726  88.6210 220.2505 15.20008510  5730","mean_motion":15.2000851,"eccentricity":0.0001726,"inclination_deg":97.2852,"raan_deg":17.7135,"arg_perigee_deg":88.621,"mean_anomaly_deg":220.2505,"bstar":0.031853,"rev_number":573,"period_min":94.736311706571,"perigee_km":504.62674961603,"apogee_km":507.00308981871,"semimajor_km":6883.9519197174,"source":"CELESTRAK","updated_at":"2026-09-21T09:00:32.889442Z"}}